Weather History for KOXI - June, 2013

Change the Weather History Date:

Thursday, June 13, 2013

  Actual Average (KVPZ) Record (KVPZ)
Temperature  
Mean Temperature 64 °F 69 °F  
Max Temperature 86 °F 79 °F 90 °F (2007)
Min Temperature 56 °F 58 °F 47 °F (2012)
Degree Days  
Heating Degree Days 1 1  
Month to date heating degree days 31  
Since 1 June heating degree days 31  
Since 1 July heating degree days 6310  
Cooling Degree Days 0 5  
Month to date cooling degree days 52  
Year to date cooling degree days 99  
Since 1 June cooling degree days 52  
Growing Degree Days 14 (Base 50)    
Moisture  
Dew Point 59 °F    
Average Humidity 82    
Maximum Humidity 100    
Minimum Humidity 56    
Precipitation  
Precipitation 0.00 in 0.13 in 1.55 in (2000)
Month to date precipitation 1.74  
Year to date precipitation 14.72  
Sea Level Pressure  
Sea Level Pressure 29.86 in    
Wind  
Wind Speed 13 mph (NNW)    
Max Wind Speed 23 mph    
Max Gust Speed 31 mph    
Visibility 9 miles    
Events      
T = Trace of Precipitation, MM = Missing Value Source: NWS Daily Summary

Daily Weather History Graph

Daily Weather History Graph

Search for Another Location

Airport or City:

Trip Planner

Search our weather history database for the weather conditions in past years. The results will help you decide how hot, cold, wet, or windy it might be!

Date:

Astronomy

Jun. 13, 2013 Rise Set
Actual Time 5:12 AM CDT 8:20 PM CDT
Civil Twilight 4:39 AM CDT 8:54 PM CDT
Nautical Twilight 3:55 AM CDT 9:38 PM CDT
Astronomical Twilight 3:04 AM CDT 10:29 PM CDT
Moon 9:51 AM CDT (6/13) 11:24 PM CDT (6/13)
Length of Visible Light 16h 15m
Length of Day
15h 08m
Waxing Crescent, 22% of the Moon is Illuminated
Jun 13
Waxing Crescent
Jun 16
First Quarter
Jun 23
Full
Jun 29
Last Quarter
Jul 8
New

Hourly Weather History & Observations

Time (CDT) Temp. Dew Point Humidity Pressure Visibility Wind Dir Wind Speed Gust Speed Precip Events Conditions
12:15 AM 66.9 °F 66.6 °F 99% 29.73 in 10.0 mi NNW 13.8 mph 18.4 mph N/A   Overcast
12:35 AM 66.4 °F 66.0 °F 99% 29.70 in 10.0 mi North 9.2 mph - N/A   Overcast
12:55 AM 65.7 °F 65.5 °F 99% 29.60 in 7.0 mi ENE 19.6 mph 24.2 mph N/A   Overcast
1:15 AM 65.3 °F 64.9 °F 99% 29.54 in 10.0 mi East 11.5 mph 19.6 mph N/A   Mostly Cloudy
1:35 AM 65.5 °F 65.1 °F 99% 29.61 in 10.0 mi WSW 11.5 mph - N/A   Scattered Clouds
1:55 AM 65.7 °F 65.3 °F 99% 29.65 in 10.0 mi NW 10.4 mph - N/A   Clear
2:15 AM 65.5 °F 65.3 °F 99% 29.65 in 10.0 mi WNW 4.6 mph - N/A   Mostly Cloudy
2:35 AM 65.7 °F 65.5 °F 99% 29.65 in 10.0 mi WNW 5.8 mph - N/A   Mostly Cloudy
2:55 AM 65.3 °F 65.3 °F 100% 29.65 in 10.0 mi Calm Calm - N/A   Scattered Clouds
3:15 AM 64.9 °F 64.8 °F 99% 29.66 in 7.0 mi WNW 3.5 mph - N/A   Clear
3:35 AM 64.6 °F 64.6 °F 100% 29.67 in 7.0 mi WNW 9.2 mph - N/A   Clear
3:55 AM 64.6 °F 64.4 °F 99% 29.69 in 10.0 mi NNW 15.0 mph - N/A   Mostly Cloudy
4:15 AM 63.5 °F 63.1 °F 99% 29.70 in 10.0 mi NNW 17.3 mph 23.0 mph N/A   Overcast
4:35 AM 61.7 °F 61.5 °F 99% 29.71 in 5.0 mi NNW 17.3 mph - N/A   Overcast
4:55 AM 61.0 °F 61.0 °F 100% 29.71 in 5.0 mi North 11.5 mph - N/A   Overcast
5:15 AM 61.0 °F 61.0 °F 100% 29.71 in 5.0 mi North 11.5 mph - N/A   Overcast
5:35 AM 61.2 °F 61.2 °F 100% 29.73 in 5.0 mi NNW 9.2 mph - N/A   Overcast
5:55 AM 61.2 °F 61.2 °F 100% 29.73 in 4.0 mi North 11.5 mph - N/A   Overcast
6:15 AM 61.0 °F 61.0 °F 100% 29.74 in 4.0 mi North 12.7 mph - N/A   Overcast
6:35 AM 60.4 °F 60.4 °F 100% 29.75 in 3.0 mi NNW 11.5 mph - N/A   Overcast
6:55 AM 59.9 °F 59.9 °F 100% 29.76 in 4.0 mi North 11.5 mph - N/A   Overcast
7:15 AM 59.9 °F 59.9 °F 100% 29.78 in 4.0 mi North 11.5 mph - N/A   Overcast
7:35 AM 60.8 °F 60.8 °F 100% 29.78 in 10.0 mi North 9.2 mph - N/A   Overcast
7:55 AM 62.1 °F 61.7 °F 99% 29.80 in 10.0 mi NNW 13.8 mph - N/A   Overcast
8:15 AM 62.6 °F 61.9 °F 97% 29.82 in 10.0 mi NNW 15.0 mph 20.7 mph N/A   Overcast
8:35 AM 63.3 °F 62.4 °F 97% 29.82 in 10.0 mi North 10.4 mph - N/A   Overcast
8:55 AM 65.1 °F 63.0 °F 93% 29.83 in 10.0 mi North 10.4 mph - N/A   Overcast
9:15 AM 67.1 °F 62.6 °F 85% 29.85 in 10.0 mi North 15.0 mph 18.4 mph N/A   Scattered Clouds
9:35 AM 68.9 °F 61.3 °F 77% 29.85 in 10.0 mi North 13.8 mph - N/A   Clear
9:55 AM 69.6 °F 60.6 °F 73% 29.85 in 10.0 mi North 13.8 mph - N/A   Clear
10:15 AM 70.5 °F 60.3 °F 70% 29.86 in 10.0 mi North 11.5 mph 16.1 mph N/A   Clear
10:35 AM 71.6 °F 59.9 °F 66% 29.87 in 10.0 mi North 13.8 mph - N/A   Clear
10:55 AM 72.1 °F 60.3 °F 66% 29.87 in 10.0 mi NNW 13.8 mph 17.3 mph N/A   Clear
11:15 AM 71.6 °F 60.4 °F 68% 29.88 in 10.0 mi NNW 19.6 mph - N/A   Clear
11:35 AM 71.1 °F 61.0 °F 70% 29.89 in 10.0 mi NW 16.1 mph 23.0 mph N/A   Clear
11:55 AM 71.1 °F 57.4 °F 62% 29.89 in 10.0 mi NNW 18.4 mph 24.2 mph N/A   Clear
12:15 PM 72.0 °F 56.8 °F 59% 29.90 in 10.0 mi NNW 17.3 mph 21.9 mph N/A   Clear
12:35 PM 72.1 °F 56.7 °F 58% 29.90 in 10.0 mi North 18.4 mph 25.3 mph N/A   Clear
12:55 PM 72.5 °F 57.0 °F 58% 29.90 in 10.0 mi North 18.4 mph 23.0 mph N/A   Clear
1:15 PM 72.7 °F 56.3 °F 56% 29.91 in 10.0 mi NNW 21.9 mph 26.5 mph N/A   Clear
1:35 PM 71.8 °F 57.0 °F 60% 29.93 in 10.0 mi NNW 20.7 mph 26.5 mph N/A   Clear
1:55 PM 70.3 °F 57.9 °F 65% 29.93 in 10.0 mi NNW 18.4 mph 27.6 mph N/A   Clear
2:15 PM 70.0 °F 58.3 °F 66% 29.94 in 10.0 mi NNW 19.6 mph 27.6 mph N/A   Clear
2:35 PM 69.6 °F 57.9 °F 66% 29.94 in 10.0 mi NNW 19.6 mph - N/A   Clear
2:55 PM 69.3 °F 57.7 °F 67% 29.95 in 10.0 mi NNW 19.6 mph 27.6 mph N/A   Clear
3:15 PM 68.5 °F 57.9 °F 69% 29.96 in 10.0 mi NNW 23.0 mph 31.1 mph N/A   Clear
3:35 PM 67.5 °F 56.8 °F 69% 29.97 in 10.0 mi NNW 21.9 mph 26.5 mph N/A   Clear
3:55 PM 67.5 °F 56.3 °F 67% 29.97 in 10.0 mi North 18.4 mph 26.5 mph N/A   Clear
4:15 PM 67.5 °F 55.2 °F 65% 29.96 in 10.0 mi North 21.9 mph 27.6 mph N/A   Clear
4:35 PM 67.8 °F 55.0 °F 64% 29.96 in 10.0 mi North 17.3 mph 24.2 mph N/A   Clear
4:55 PM 68.2 °F 55.4 °F 64% 29.97 in 10.0 mi North 18.4 mph 25.3 mph N/A   Clear
5:15 PM 67.5 °F 54.9 °F 64% 29.97 in 10.0 mi NNW 21.9 mph 27.6 mph N/A   Clear
5:35 PM 66.9 °F 53.8 °F 63% 29.97 in 10.0 mi North 20.7 mph 25.3 mph N/A   Clear
5:55 PM 66.6 °F 53.4 °F 63% 29.97 in 10.0 mi North 17.3 mph 25.3 mph N/A   Clear
6:15 PM 66.4 °F 53.2 °F 63% 29.97 in 10.0 mi North 16.1 mph - N/A   Clear
6:35 PM 66.2 °F 53.4 °F 63% 29.97 in 10.0 mi North 13.8 mph - N/A   Clear
6:55 PM 65.8 °F 53.6 °F 65% 29.98 in 10.0 mi North 10.4 mph - N/A   Clear
7:15 PM 65.5 °F 53.6 °F 65% 29.98 in 10.0 mi North 10.4 mph - N/A   Clear
7:35 PM 64.6 °F 53.1 °F 66% 29.98 in 10.0 mi North 12.7 mph - N/A   Clear
7:55 PM 63.5 °F 52.9 °F 68% 29.98 in 10.0 mi North 13.8 mph - N/A   Clear
8:15 PM 62.2 °F 52.5 °F 70% 29.99 in 10.0 mi North 11.5 mph - N/A   Clear
8:35 PM 60.8 °F 53.2 °F 76% 29.99 in 10.0 mi NNW 11.5 mph - N/A   Clear
8:55 PM 59.9 °F 54.0 °F 81% 30.00 in 10.0 mi NW 10.4 mph - N/A   Clear
9:15 PM 59.2 °F 55.2 °F 87% 30.01 in 10.0 mi NNW 10.4 mph - N/A   Clear
9:35 PM 58.5 °F 55.0 °F 88% 30.01 in 10.0 mi NNW 9.2 mph - N/A   Clear
9:55 PM 57.7 °F 55.0 °F 91% 30.01 in 10.0 mi NW 8.1 mph - N/A   Clear
10:15 PM 57.4 °F 54.9 °F 91% 30.02 in 10.0 mi NW 8.1 mph - N/A   Clear
10:35 PM 57.4 °F 54.7 °F 91% 30.02 in 10.0 mi NW 9.2 mph - N/A   Clear
10:55 PM 57.0 °F 54.5 °F 91% 30.01 in 10.0 mi NW 8.1 mph - N/A   Clear
11:15 PM 56.8 °F 54.5 °F 92% 30.01 in 10.0 mi NW 8.1 mph - N/A   Clear
11:35 PM 56.5 °F 54.5 °F 93% 30.01 in 10.0 mi NW 9.2 mph - N/A   Clear
11:55 PM 56.1 °F 54.5 °F 94% 30.01 in 10.0 mi NW 6.9 mph - N/A   Clear